Time,TemperatureF,DewpointF,PressureIn,WindDirection,WindDirectionDegrees,WindSpeedMPH,WindSpeedGustMPH,Humidity,HourlyPrecipIn,Conditions,Clouds,dailyrainin,SolarRadiationWatts/m^2,SoftwareType,DateUTC
2013-06-15 00:00:00,56.0,40.2,-100.00,SSW,205,0.7,2.9,55,0.00,,,-99.99,1.0,HOBO +U30 +Weather +,2013-06-15 06:00:00,
2013-06-15 00:05:00,55.6,40.0,-100.00,SSW,205,0.0,1.8,55,0.00,,,-99.99,1.0,HOBO +U30 +Weather +,2013-06-15 06:05:00,
2013-06-15 00:10:00,55.3,40.2,-100.00,SSW,205,0.0,2.2,56,0.00,,,-99.99,1.0,HOBO +U30 +Weather +,2013-06-15 06:10:00,
2013-06-15 00:21:00,55.0,40.7,-100.00,SSW,205,0.7,2.2,58,0.00,,,-99.99,1.0,HOBO +U30 +Weather +,2013-06-15 06:21:00,
2013-06-15 00:25:00,54.7,39.8,-100.00,SSE,167,2.9,4.5,57,0.00,,,-99.99,1.0,HOBO +U30 +Weather +,2013-06-15 06:25:00,
2013-06-15 00:30:00,54.7,39.5,-100.00,South,174,3.4,5.1,56,0.00,,,-99.99,1.0,HOBO +U30 +Weather +,2013-06-15 06:30:00,
2013-06-15 00:35:00,54.6,39.9,-100.00,SSW,194,2.9,4.5,57,0.00,,,-99.99,1.0,HOBO +U30 +Weather +,2013-06-15 06:35:00,
2013-06-15 00:40:00,54.7,40.2,-100.00,SSW,199,1.8,4.0,57,0.00,,,-99.99,1.0,HOBO +U30 +Weather +,2013-06-15 06:40:00,
2013-06-15 00:45:00,54.9,40.3,-100.00,SW,216,2.2,3.4,57,0.00,,,-99.99,1.0,HOBO +U30 +Weather +,2013-06-15 06:45:00,
2013-06-15 00:50:00,54.7,40.3,-100.00,SSW,212,1.8,3.4,58,0.00,,,-99.99,1.0,HOBO +U30 +Weather +,2013-06-15 06:50:00,
2013-06-15 00:55:00,54.3,40.3,-100.00,SSW,206,1.8,2.9,59,0.00,,,-99.99,1.0,HOBO +U30 +Weather +,2013-06-15 06:55:00,
2013-06-15 01:00:00,53.7,39.8,-100.00,SSW,194,1.8,3.4,59,0.00,,,-99.99,1.0,HOBO +U30 +Weather +,2013-06-15 07:00:00,
2013-06-15 01:05:00,53.4,39.7,-100.00,South,174,2.2,4.0,59,0.00,,,-99.99,1.0,HOBO +U30 +Weather +,2013-06-15 07:05:00,
2013-06-15 01:10:00,53.0,39.9,-100.00,SSE,161,1.1,2.2,61,0.00,,,-99.99,1.0,HOBO +U30 +Weather +,2013-06-15 07:10:00,
2013-06-15 01:15:00,52.6,39.6,-100.00,SSE,161,0.0,1.1,60,0.00,,,-99.99,1.0,HOBO +U30 +Weather +,2013-06-15 07:15:00,
2013-06-15 01:20:00,52.6,40.2,-100.00,SSE,161,1.1,2.9,62,0.00,,,-99.99,1.0,HOBO +U30 +Weather +,2013-06-15 07:20:00,
2013-06-15 01:25:00,52.3,40.2,-100.00,SSE,161,0.0,1.8,63,0.00,,,-99.99,1.0,HOBO +U30 +Weather +,2013-06-15 07:25:00,
2013-06-15 01:30:00,52.7,39.9,-100.00,SSE,161,0.7,2.2,61,0.00,,,-99.99,1.0,HOBO +U30 +Weather +,2013-06-15 07:30:00,
2013-06-15 01:35:00,52.2,40.4,-100.00,SSE,161,0.0,0.7,64,0.00,,,-99.99,1.0,HOBO +U30 +Weather +,2013-06-15 07:35:00,
2013-06-15 01:40:00,51.8,40.6,-100.00,NNE,13,2.9,5.1,65,0.00,,,-99.99,1.0,HOBO +U30 +Weather +,2013-06-15 07:40:00,
2013-06-15 01:45:00,52.6,40.4,-100.00,North,354,2.2,5.1,63,0.00,,,-99.99,1.0,HOBO +U30 +Weather +,2013-06-15 07:45:00,
2013-06-15 01:50:00,51.9,39.8,-100.00,North,352,0.0,1.1,63,0.00,,,-99.99,1.0,HOBO +U30 +Weather +,2013-06-15 07:50:00,
2013-06-15 01:55:00,52.2,39.7,-100.00,North,352,0.0,1.8,62,0.00,,,-99.99,1.0,HOBO +U30 +Weather +,2013-06-15 07:55:00,
2013-06-15 02:00:00,52.0,39.8,-100.00,North,352,0.0,0.7,62,0.00,,,-99.99,1.0,HOBO +U30 +Weather +,2013-06-15 08:00:00,
2013-06-15 02:05:00,52.3,40.2,-100.00,North,355,0.0,3.4,63,0.00,,,-99.99,1.0,HOBO +U30 +Weather +,2013-06-15 08:05:00,
2013-06-15 02:18:00,51.6,40.4,-100.00,SE,138,2.9,4.5,65,0.00,,,-99.99,1.0,HOBO +U30 +Weather +,2013-06-15 08:18:00,
2013-06-15 02:20:00,50.9,39.8,-100.00,South,177,3.4,5.1,65,0.00,,,-99.99,1.0,HOBO +U30 +Weather +,2013-06-15 08:20:00,
2013-06-15 02:25:00,50.8,40.3,-100.00,South,185,3.4,4.5,67,0.00,,,-99.99,1.0,HOBO +U30 +Weather +,2013-06-15 08:25:00,
2013-06-15 02:30:00,50.4,40.4,-100.00,SSW,192,4.0,5.1,68,0.00,,,-99.99,1.0,HOBO +U30 +Weather +,2013-06-15 08:30:00,
2013-06-15 02:35:00,50.1,40.9,-100.00,SSW,195,4.5,5.6,70,0.00,,,-99.99,1.0,HOBO +U30 +Weather +,2013-06-15 08:35:00,
2013-06-15 02:40:00,49.5,41.2,-100.00,SSW,194,4.0,5.6,72,0.00,,,-99.99,1.0,HOBO +U30 +Weather +,2013-06-15 08:40:00,
2013-06-15 02:45:00,49.4,41.2,-100.00,SSW,197,4.5,6.3,73,0.00,,,-99.99,1.0,HOBO +U30 +Weather +,2013-06-15 08:45:00,
2013-06-15 02:50:00,49.4,41.3,-100.00,SSW,199,4.5,6.7,73,0.00,,,-99.99,1.0,HOBO +U30 +Weather +,2013-06-15 08:50:00,
2013-06-15 02:55:00,49.4,41.8,-100.00,SSW,201,5.1,7.4,75,0.00,,,-99.99,1.0,HOBO +U30 +Weather +,2013-06-15 08:55:00,
2013-06-15 03:00:00,49.2,41.7,-100.00,SW,222,5.1,7.4,75,0.00,,,-99.99,1.0,HOBO +U30 +Weather +,2013-06-15 09:00:00,
2013-06-15 03:05:00,49.4,41.5,-100.00,SW,222,4.0,7.4,73,0.00,,,-99.99,1.0,HOBO +U30 +Weather +,2013-06-15 09:05:00,
2013-06-15 03:10:00,49.7,41.2,-100.00,WSW,241,1.8,4.5,72,0.00,,,-99.99,1.0,HOBO +U30 +Weather +,2013-06-15 09:10:00,
2013-06-15 03:15:00,48.9,41.1,-100.00,WNW,296,0.0,1.8,74,0.00,,,-99.99,1.0,HOBO +U30 +Weather +,2013-06-15 09:15:00,
2013-06-15 03:20:00,48.5,41.4,-100.00,WNW,299,0.7,3.4,76,0.00,,,-99.99,1.0,HOBO +U30 +Weather +,2013-06-15 09:20:00,
2013-06-15 03:25:00,48.4,41.4,-100.00,NW,314,0.7,3.4,76,0.00,,,-99.99,1.0,HOBO +U30 +Weather +,2013-06-15 09:25:00,
2013-06-15 03:30:00,48.8,41.7,-100.00,NE,46,2.2,4.0,76,0.00,,,-99.99,1.0,HOBO +U30 +Weather +,2013-06-15 09:30:00,
2013-06-15 03:35:00,48.9,41.6,-100.00,NE,46,0.0,1.8,75,0.00,,,-99.99,1.0,HOBO +U30 +Weather +,2013-06-15 09:35:00,
2013-06-15 03:40:00,49.3,41.6,-100.00,NE,46,1.8,2.9,74,0.00,,,-99.99,1.0,HOBO +U30 +Weather +,2013-06-15 09:40:00,
2013-06-15 03:45:00,49.2,41.1,-100.00,NE,46,1.1,3.4,73,0.00,,,-99.99,1.0,HOBO +U30 +Weather +,2013-06-15 09:45:00,
2013-06-15 03:50:00,48.8,40.8,-100.00,NE,46,1.1,2.9,73,0.00,,,-99.99,1.0,HOBO +U30 +Weather +,2013-06-15 09:50:00,
2013-06-15 03:55:00,48.8,40.8,-100.00,NNE,25,2.2,5.1,73,0.00,,,-99.99,1.0,HOBO +U30 +Weather +,2013-06-15 09:55:00,
2013-06-15 04:00:00,48.9,41.2,-100.00,SE,129,3.4,5.1,74,0.00,,,-99.99,1.0,HOBO +U30 +Weather +,2013-06-15 10:00:00,
2013-06-15 04:05:00,48.8,41.4,-100.00,South,183,5.6,7.8,75,0.00,,,-99.99,1.0,HOBO +U30 +Weather +,2013-06-15 10:05:00,
2013-06-15 04:15:00,48.7,41.2,-100.00,SSW,204,4.0,7.4,75,0.00,,,-99.99,1.0,HOBO +U30 +Weather +,2013-06-15 10:15:00,
2013-06-15 04:20:00,48.4,41.2,-100.00,West,268,1.8,4.5,76,0.00,,,-99.99,1.0,HOBO +U30 +Weather +,2013-06-15 10:20:00,
2013-06-15 04:25:00,47.6,40.9,-100.00,WNW,299,0.0,2.9,77,0.00,,,-99.99,1.0,HOBO +U30 +Weather +,2013-06-15 10:25:00,
2013-06-15 04:30:00,47.8,41.5,-100.00,WNW,299,1.8,2.9,78,0.00,,,-99.99,1.0,HOBO +U30 +Weather +,2013-06-15 10:30:00,
2013-06-15 04:35:00,47.6,41.3,-100.00,WNW,295,1.8,4.0,78,0.00,,,-99.99,1.0,HOBO +U30 +Weather +,2013-06-15 10:35:00,
2013-06-15 04:40:00,47.8,41.1,-100.00,WNW,291,1.8,4.0,77,0.00,,,-99.99,1.0,HOBO +U30 +Weather +,2013-06-15 10:40:00,
2013-06-15 04:45:00,47.9,41.1,-100.00,WNW,282,1.1,2.9,77,0.00,,,-99.99,1.0,HOBO +U30 +Weather +,2013-06-15 10:45:00,
2013-06-15 04:50:00,48.2,41.0,-100.00,WNW,285,1.8,4.0,75,0.00,,,-99.99,1.0,HOBO +U30 +Weather +,2013-06-15 10:50:00,
2013-06-15 04:55:00,47.7,40.8,-100.00,SSE,164,4.0,5.1,76,0.00,,,-99.99,1.0,HOBO +U30 +Weather +,2013-06-15 10:55:00,
2013-06-15 05:00:00,47.4,40.6,-100.00,South,173,1.1,4.0,76,0.00,,,-99.99,1.0,HOBO +U30 +Weather +,2013-06-15 11:00:00,
2013-06-15 05:05:00,47.7,40.8,-100.00,SSW,195,3.4,5.1,76,0.00,,,-99.99,1.0,HOBO +U30 +Weather +,2013-06-15 11:05:00,
2013-06-15 05:10:00,47.7,40.9,-100.00,SSW,195,3.4,5.1,77,0.00,,,-99.99,1.0,HOBO +U30 +Weather +,2013-06-15 11:10:00,
2013-06-15 05:15:00,47.5,40.7,-100.00,SSW,194,0.0,2.2,77,0.00,,,-99.99,2.0,HOBO +U30 +Weather +,2013-06-15 11:15:00,
2013-06-15 05:20:00,47.5,40.7,-100.00,SSW,194,1.8,4.0,77,0.00,,,-99.99,3.0,HOBO +U30 +Weather +,2013-06-15 11:20:00,
2013-06-15 05:25:00,47.5,40.7,-100.00,South,188,4.0,5.1,77,0.00,,,-99.99,4.0,HOBO +U30 +Weather +,2013-06-15 11:25:00,
2013-06-15 05:30:00,47.2,40.7,-100.00,SSW,199,2.9,4.5,78,0.00,,,-99.99,13.0,HOBO +U30 +Weather +,2013-06-15 11:30:00,
2013-06-15 05:35:00,47.3,40.7,-100.00,SSW,205,2.2,4.0,77,0.00,,,-99.99,18.0,HOBO +U30 +Weather +,2013-06-15 11:35:00,
2013-06-15 05:40:00,47.8,40.4,-100.00,SW,223,1.8,4.0,75,0.00,,,-99.99,24.0,HOBO +U30 +Weather +,2013-06-15 11:40:00,
2013-06-15 05:45:00,47.5,40.9,-100.00,SW,220,0.0,1.8,77,0.00,,,-99.99,32.0,HOBO +U30 +Weather +,2013-06-15 11:45:00,
2013-06-15 05:50:00,47.8,40.5,-100.00,SSW,209,1.8,4.5,75,0.00,,,-99.99,41.0,HOBO +U30 +Weather +,2013-06-15 11:50:00,
2013-06-15 05:55:00,48.0,40.5,-100.00,SSW,205,2.2,4.5,75,0.00,,,-99.99,52.0,HOBO +U30 +Weather +,2013-06-15 11:55:00,
2013-06-15 06:00:00,48.4,41.2,-100.00,SSW,211,0.7,2.2,75,0.00,,,-99.99,63.0,HOBO +U30 +Weather +,2013-06-15 12:00:00,
2013-06-15 06:13:00,48.2,41.1,-100.00,West,274,2.2,4.5,76,0.00,,,-99.99,77.0,HOBO +U30 +Weather +,2013-06-15 12:13:00,
2013-06-15 06:15:00,48.6,41.1,-100.00,WSW,258,2.9,5.1,75,0.00,,,-99.99,104.0,HOBO +U30 +Weather +,2013-06-15 12:15:00,
2013-06-15 06:20:00,48.7,40.6,-100.00,West,263,2.2,4.0,73,0.00,,,-99.99,118.0,HOBO +U30 +Weather +,2013-06-15 12:20:00,
2013-06-15 06:25:00,49.3,40.4,-100.00,SW,230,1.8,4.5,71,0.00,,,-99.99,129.0,HOBO +U30 +Weather +,2013-06-15 12:25:00,
2013-06-15 06:30:00,48.8,40.4,-100.00,SSW,192,3.4,5.1,72,0.00,,,-99.99,141.0,HOBO +U30 +Weather +,2013-06-15 12:30:00,
2013-06-15 06:35:00,48.7,40.4,-100.00,SSW,198,3.4,5.1,72,0.00,,,-99.99,151.0,HOBO +U30 +Weather +,2013-06-15 12:35:00,
2013-06-15 06:40:00,49.0,40.7,-100.00,SSW,194,2.9,4.5,72,0.00,,,-99.99,162.0,HOBO +U30 +Weather +,2013-06-15 12:40:00,
2013-06-15 06:45:00,49.3,40.9,-100.00,SSW,204,3.4,6.3,72,0.00,,,-99.99,173.0,HOBO +U30 +Weather +,2013-06-15 12:45:00,
2013-06-15 06:50:00,49.4,40.3,-100.00,SW,225,2.9,4.0,70,0.00,,,-99.99,184.0,HOBO +U30 +Weather +,2013-06-15 12:50:00,
2013-06-15 06:55:00,49.8,40.0,-100.00,WSW,248,2.9,4.0,68,0.00,,,-99.99,94.0,HOBO +U30 +Weather +,2013-06-15 12:55:00,
2013-06-15 07:00:00,50.5,40.1,-100.00,West,260,1.8,3.4,67,0.00,,,-99.99,33.0,HOBO +U30 +Weather +,2013-06-15 13:00:00,
2013-06-15 07:12:00,50.7,40.5,-100.00,West,260,2.9,4.0,67,0.00,,,-99.99,213.0,HOBO +U30 +Weather +,2013-06-15 13:12:00,
2013-06-15 07:15:00,51.8,40.6,-100.00,West,260,2.2,4.0,65,0.00,,,-99.99,247.0,HOBO +U30 +Weather +,2013-06-15 13:15:00,
2013-06-15 07:20:00,52.6,40.3,-100.00,SW,215,2.9,5.1,62,0.00,,,-99.99,261.0,HOBO +U30 +Weather +,2013-06-15 13:20:00,
2013-06-15 07:25:00,52.5,40.2,-100.00,SW,218,4.0,5.6,62,0.00,,,-99.99,272.0,HOBO +U30 +Weather +,2013-06-15 13:25:00,
2013-06-15 07:30:00,53.8,41.6,-100.00,SW,234,2.2,4.5,63,0.00,,,-99.99,286.0,HOBO +U30 +Weather +,2013-06-15 13:30:00,
2013-06-15 07:35:00,54.1,40.7,-100.00,West,272,1.1,4.0,60,0.00,,,-99.99,298.0,HOBO +U30 +Weather +,2013-06-15 13:35:00,
2013-06-15 07:40:00,53.9,40.3,-100.00,WSW,258,1.8,5.1,59,0.00,,,-99.99,312.0,HOBO +U30 +Weather +,2013-06-15 13:40:00,
2013-06-15 07:45:00,54.5,40.3,-100.00,WSW,257,1.1,4.0,58,0.00,,,-99.99,324.0,HOBO +U30 +Weather +,2013-06-15 13:45:00,
2013-06-15 07:50:00,54.4,39.5,-100.00,WSW,247,2.9,5.6,56,0.00,,,-99.99,338.0,HOBO +U30 +Weather +,2013-06-15 13:50:00,
2013-06-15 07:55:00,54.5,39.5,-100.00,West,260,3.4,6.3,56,0.00,,,-99.99,352.0,HOBO +U30 +Weather +,2013-06-15 13:55:00,
2013-06-15 08:00:00,55.1,39.9,-100.00,SW,234,2.2,4.5,56,0.00,,,-99.99,366.0,HOBO +U30 +Weather +,2013-06-15 14:00:00,
2013-06-15 08:11:00,55.5,39.7,-100.00,WSW,240,2.9,5.6,55,0.00,,,-99.99,379.0,HOBO +U30 +Weather +,2013-06-15 14:11:00,
2013-06-15 08:15:00,56.2,39.2,-100.00,SSW,204,4.5,7.4,52,0.00,,,-99.99,404.0,HOBO +U30 +Weather +,2013-06-15 14:15:00,
2013-06-15 08:20:00,56.9,39.8,-100.00,SW,220,2.2,6.3,52,0.00,,,-99.99,417.0,HOBO +U30 +Weather +,2013-06-15 14:20:00,
2013-06-15 08:25:00,56.9,39.6,-100.00,WSW,243,2.2,5.1,52,0.00,,,-99.99,431.0,HOBO +U30 +Weather +,2013-06-15 14:25:00,
2013-06-15 08:30:00,57.3,39.7,-100.00,SW,230,2.2,4.5,51,0.00,,,-99.99,443.0,HOBO +U30 +Weather +,2013-06-15 14:30:00,
2013-06-15 08:35:00,57.9,40.3,-100.00,SSW,209,4.0,7.8,51,0.00,,,-99.99,457.0,HOBO +U30 +Weather +,2013-06-15 14:35:00,
2013-06-15 08:40:00,57.6,39.7,-100.00,SSW,206,5.6,7.8,51,0.00,,,-99.99,469.0,HOBO +U30 +Weather +,2013-06-15 14:40:00,
2013-06-15 08:45:00,58.3,40.4,-100.00,SSW,197,5.1,8.5,51,0.00,,,-99.99,482.0,HOBO +U30 +Weather +,2013-06-15 14:45:00,
2013-06-15 08:50:00,58.2,39.7,-100.00,SSW,212,5.1,10.1,50,0.00,,,-99.99,496.0,HOBO +U30 +Weather +,2013-06-15 14:50:00,
2013-06-15 08:55:00,58.2,39.8,-100.00,SW,227,5.1,7.8,50,0.00,,,-99.99,508.0,HOBO +U30 +Weather +,2013-06-15 14:55:00,
2013-06-15 09:00:00,59.3,39.3,-100.00,WSW,250,4.5,6.7,47,0.00,,,-99.99,521.0,HOBO +U30 +Weather +,2013-06-15 15:00:00,
2013-06-15 09:10:00,59.6,39.7,-100.00,SSW,211,4.0,7.4,47,0.00,,,-99.99,533.0,HOBO +U30 +Weather +,2013-06-15 15:10:00,
2013-06-15 09:15:00,59.6,39.4,-100.00,SSW,206,5.6,8.9,47,0.00,,,-99.99,557.0,HOBO +U30 +Weather +,2013-06-15 15:15:00,
2013-06-15 09:20:00,60.4,40.3,-100.00,SSW,209,4.5,7.8,47,0.00,,,-99.99,571.0,HOBO +U30 +Weather +,2013-06-15 15:20:00,
2013-06-15 09:25:00,61.2,39.7,-100.00,SSW,212,4.0,8.9,45,0.00,,,-99.99,581.0,HOBO +U30 +Weather +,2013-06-15 15:25:00,
2013-06-15 09:30:00,61.1,40.2,-100.00,SSW,197,5.1,7.4,46,0.00,,,-99.99,592.0,HOBO +U30 +Weather +,2013-06-15 15:30:00,
2013-06-15 09:35:00,60.9,40.7,-100.00,SSW,197,6.3,8.9,47,0.00,,,-99.99,603.0,HOBO +U30 +Weather +,2013-06-15 15:35:00,
2013-06-15 09:40:00,61.0,39.7,-100.00,WSW,240,5.6,8.9,45,0.00,,,-99.99,614.0,HOBO +U30 +Weather +,2013-06-15 15:40:00,
2013-06-15 09:45:00,61.7,40.3,-100.00,SW,227,4.5,7.8,45,0.00,,,-99.99,627.0,HOBO +U30 +Weather +,2013-06-15 15:45:00,
2013-06-15 09:50:00,61.7,40.1,-100.00,SW,220,5.1,9.6,44,0.00,,,-99.99,637.0,HOBO +U30 +Weather +,2013-06-15 15:50:00,
2013-06-15 09:55:00,62.7,40.1,-100.00,SW,234,3.4,7.4,43,0.00,,,-99.99,648.0,HOBO +U30 +Weather +,2013-06-15 15:55:00,
2013-06-15 10:09:00,63.2,40.0,-100.00,SW,215,5.1,8.9,42,0.00,,,-99.99,659.0,HOBO +U30 +Weather +,2013-06-15 16:09:00,
2013-06-15 10:10:00,63.7,40.5,-100.00,SSW,208,6.3,10.1,42,0.00,,,-99.99,681.0,HOBO +U30 +Weather +,2013-06-15 16:10:00,
2013-06-15 10:15:00,63.4,40.5,-100.00,SSW,213,7.8,11.9,42,0.00,,,-99.99,691.0,HOBO +U30 +Weather +,2013-06-15 16:15:00,
2013-06-15 10:20:00,64.0,40.0,-100.00,WSW,247,5.1,9.6,41,0.00,,,-99.99,699.0,HOBO +U30 +Weather +,2013-06-15 16:20:00,
2013-06-15 10:25:00,64.6,40.3,-100.00,SW,225,4.5,10.7,40,0.00,,,-99.99,713.0,HOBO +U30 +Weather +,2013-06-15 16:25:00,
2013-06-15 10:30:00,64.8,41.0,-100.00,SSW,212,5.1,11.2,41,0.00,,,-99.99,719.0,HOBO +U30 +Weather +,2013-06-15 16:30:00,
2013-06-15 10:35:00,64.9,39.7,-100.00,SSW,209,7.8,13.0,39,0.00,,,-99.99,731.0,HOBO +U30 +Weather +,2013-06-15 16:35:00,
2013-06-15 10:40:00,64.9,39.5,-100.00,SW,225,7.4,11.9,39,0.00,,,-99.99,739.0,HOBO +U30 +Weather +,2013-06-15 16:40:00,
2013-06-15 10:45:00,66.7,40.7,-100.00,SSW,213,5.6,10.7,38,0.00,,,-99.99,748.0,HOBO +U30 +Weather +,2013-06-15 16:45:00,
2013-06-15 10:50:00,66.8,40.8,-100.00,WSW,246,3.4,7.4,38,0.00,,,-99.99,756.0,HOBO +U30 +Weather +,2013-06-15 16:50:00,
2013-06-15 10:55:00,66.6,40.6,-100.00,SSW,194,7.4,13.0,38,0.00,,,-99.99,764.0,HOBO +U30 +Weather +,2013-06-15 16:55:00,
2013-06-15 11:08:00,66.5,40.0,-100.00,SSW,194,6.7,12.3,37,0.00,,,-99.99,774.0,HOBO +U30 +Weather +,2013-06-15 17:08:00,
2013-06-15 11:10:00,67.1,36.4,-100.00,SW,233,8.9,16.3,32,0.00,,,-99.99,791.0,HOBO +U30 +Weather +,2013-06-15 17:10:00,
2013-06-15 11:15:00,67.3,37.4,-100.00,SSW,213,7.4,11.9,33,0.00,,,-99.99,797.0,HOBO +U30 +Weather +,2013-06-15 17:15:00,
2013-06-15 11:20:00,67.4,35.6,-100.00,SW,225,8.9,14.5,30,0.00,,,-99.99,808.0,HOBO +U30 +Weather +,2013-06-15 17:20:00,
2013-06-15 11:25:00,67.3,36.9,-100.00,SW,225,7.4,12.3,32,0.00,,,-99.99,817.0,HOBO +U30 +Weather +,2013-06-15 17:25:00,
2013-06-15 11:30:00,66.9,37.8,-100.00,SSW,206,8.5,14.1,34,0.00,,,-99.99,819.0,HOBO +U30 +Weather +,2013-06-15 17:30:00,
2013-06-15 11:35:00,68.0,37.1,-100.00,SSW,204,8.5,13.4,32,0.00,,,-99.99,831.0,HOBO +U30 +Weather +,2013-06-15 17:35:00,
2013-06-15 11:40:00,68.9,38.6,-100.00,SSW,197,5.6,11.2,32,0.00,,,-99.99,831.0,HOBO +U30 +Weather +,2013-06-15 17:40:00,
2013-06-15 11:45:00,68.9,38.8,-100.00,SSW,198,5.1,11.2,33,0.00,,,-99.99,841.0,HOBO +U30 +Weather +,2013-06-15 17:45:00,
2013-06-15 11:50:00,68.4,35.9,-100.00,SSW,211,6.7,11.2,30,0.00,,,-99.99,849.0,HOBO +U30 +Weather +,2013-06-15 17:50:00,
2013-06-15 11:55:00,68.8,37.2,-100.00,WSW,243,6.3,11.9,31,0.00,,,-99.99,856.0,HOBO +U30 +Weather +,2013-06-15 17:55:00,
2013-06-15 12:07:00,68.6,37.7,-100.00,SSW,199,8.9,15.2,32,0.00,,,-99.99,861.0,HOBO +U30 +Weather +,2013-06-15 18:07:00,
2013-06-15 12:10:00,69.2,39.0,-100.00,South,188,6.3,11.9,33,0.00,,,-99.99,867.0,HOBO +U30 +Weather +,2013-06-15 18:10:00,
2013-06-15 12:15:00,69.6,37.6,-100.00,South,184,7.8,12.3,30,0.00,,,-99.99,873.0,HOBO +U30 +Weather +,2013-06-15 18:15:00,
2013-06-15 12:20:00,69.6,35.7,-100.00,SSW,204,7.8,12.3,28,0.00,,,-99.99,876.0,HOBO +U30 +Weather +,2013-06-15 18:20:00,
2013-06-15 12:25:00,69.3,34.7,-100.00,SW,220,7.4,14.1,27,0.00,,,-99.99,884.0,HOBO +U30 +Weather +,2013-06-15 18:25:00,
2013-06-15 12:30:00,69.8,36.2,-100.00,SSW,197,8.9,15.9,29,0.00,,,-99.99,888.0,HOBO +U30 +Weather +,2013-06-15 18:30:00,
2013-06-15 12:35:00,69.9,37.6,-100.00,SSW,198,7.8,14.5,30,0.00,,,-99.99,891.0,HOBO +U30 +Weather +,2013-06-15 18:35:00,
2013-06-15 12:40:00,71.2,35.8,-100.00,SW,218,7.4,14.5,27,0.00,,,-99.99,893.0,HOBO +U30 +Weather +,2013-06-15 18:40:00,
2013-06-15 12:45:00,70.4,36.8,-100.00,SSW,198,8.5,15.2,29,0.00,,,-99.99,894.0,HOBO +U30 +Weather +,2013-06-15 18:45:00,
2013-06-15 12:50:00,70.6,36.0,-100.00,SSW,202,8.5,17.4,28,0.00,,,-99.99,897.0,HOBO +U30 +Weather +,2013-06-15 18:50:00,
2013-06-15 12:55:00,70.0,35.6,-100.00,SSW,198,10.1,15.9,28,0.00,,,-99.99,897.0,HOBO +U30 +Weather +,2013-06-15 18:55:00,
2013-06-15 13:07:00,71.7,35.4,-100.00,SSW,211,7.4,13.4,26,0.00,,,-99.99,898.0,HOBO +U30 +Weather +,2013-06-15 19:07:00,
2013-06-15 13:10:00,71.4,35.2,-100.00,SSE,159,8.5,12.3,26,0.00,,,-99.99,897.0,HOBO +U30 +Weather +,2013-06-15 19:10:00,
2013-06-15 13:15:00,71.4,36.2,-100.00,SE,139,5.6,10.7,27,0.00,,,-99.99,896.0,HOBO +U30 +Weather +,2013-06-15 19:15:00,
2013-06-15 13:20:00,72.2,35.1,-100.00,South,175,6.3,11.9,25,0.00,,,-99.99,903.0,HOBO +U30 +Weather +,2013-06-15 19:20:00,
2013-06-15 13:25:00,72.4,32.6,-100.00,SW,236,5.6,11.2,23,0.00,,,-99.99,902.0,HOBO +U30 +Weather +,2013-06-15 19:25:00,
2013-06-15 13:30:00,71.5,32.8,-100.00,SW,216,7.4,11.9,24,0.00,,,-99.99,904.0,HOBO +U30 +Weather +,2013-06-15 19:30:00,
2013-06-15 13:35:00,73.8,35.2,-100.00,West,263,5.1,14.1,24,0.00,,,-99.99,903.0,HOBO +U30 +Weather +,2013-06-15 19:35:00,
2013-06-15 13:40:00,72.7,32.5,-100.00,WSW,253,7.8,13.4,22,0.00,,,-99.99,901.0,HOBO +U30 +Weather +,2013-06-15 19:40:00,
2013-06-15 13:45:00,72.7,31.1,-100.00,WSW,244,8.5,12.3,21,0.00,,,-99.99,898.0,HOBO +U30 +Weather +,2013-06-15 19:45:00,
2013-06-15 13:50:00,72.8,32.5,-100.00,WSW,241,7.8,13.4,22,0.00,,,-99.99,896.0,HOBO +U30 +Weather +,2013-06-15 19:50:00,
2013-06-15 13:55:00,72.7,32.8,-100.00,SW,229,8.5,14.5,23,0.00,,,-99.99,893.0,HOBO +U30 +Weather +,2013-06-15 19:55:00,
2013-06-15 14:05:00,72.1,32.8,-100.00,WSW,251,8.9,13.4,23,0.00,,,-99.99,891.0,HOBO +U30 +Weather +,2013-06-15 20:05:00,
2013-06-15 14:10:00,73.3,33.7,-100.00,WSW,237,6.7,12.3,23,0.00,,,-99.99,887.0,HOBO +U30 +Weather +,2013-06-15 20:10:00,
2013-06-15 14:15:00,73.9,32.1,-100.00,SSW,205,10.1,14.1,21,0.00,,,-99.99,882.0,HOBO +U30 +Weather +,2013-06-15 20:15:00,
2013-06-15 14:20:00,74.5,33.5,-100.00,SW,222,5.6,9.6,22,0.00,,,-99.99,874.0,HOBO +U30 +Weather +,2013-06-15 20:20:00,
2013-06-15 14:25:00,76.8,33.7,-100.00,South,187,1.1,4.5,20,0.00,,,-99.99,864.0,HOBO +U30 +Weather +,2013-06-15 20:25:00,
2013-06-15 14:30:00,75.8,27.1,-100.00,South,175,2.2,6.7,16,0.00,,,-99.99,857.0,HOBO +U30 +Weather +,2013-06-15 20:30:00,
2013-06-15 14:35:00,74.7,32.7,-100.00,WSW,250,7.8,11.9,21,0.00,,,-99.99,851.0,HOBO +U30 +Weather +,2013-06-15 20:35:00,
2013-06-15 14:40:00,76.2,32.5,-100.00,SSW,204,9.6,14.5,20,0.00,,,-99.99,843.0,HOBO +U30 +Weather +,2013-06-15 20:40:00,
2013-06-15 14:45:00,74.2,31.4,-100.00,South,187,8.9,13.0,20,0.00,,,-99.99,832.0,HOBO +U30 +Weather +,2013-06-15 20:45:00,
2013-06-15 14:50:00,74.9,32.7,-100.00,South,173,5.6,8.9,21,0.00,,,-99.99,826.0,HOBO +U30 +Weather +,2013-06-15 20:50:00,
2013-06-15 15:04:00,75.4,31.2,-100.00,SW,220,4.5,8.5,19,0.00,,,-99.99,818.0,HOBO +U30 +Weather +,2013-06-15 21:04:00,
2013-06-15 15:05:00,78.1,31.9,-100.00,SSW,199,2.9,7.4,18,0.00,,,-99.99,802.0,HOBO +U30 +Weather +,2013-06-15 21:05:00,
2013-06-15 15:10:00,76.7,31.2,-100.00,South,183,5.1,8.9,18,0.00,,,-99.99,793.0,HOBO +U30 +Weather +,2013-06-15 21:10:00,
2013-06-15 15:15:00,76.6,30.9,-100.00,South,185,7.8,13.0,18,0.00,,,-99.99,786.0,HOBO +U30 +Weather +,2013-06-15 21:15:00,
2013-06-15 15:20:00,76.4,32.5,-100.00,West,275,7.4,13.4,20,0.00,,,-99.99,776.0,HOBO +U30 +Weather +,2013-06-15 21:20:00,
2013-06-15 15:25:00,77.7,32.1,-100.00,West,270,2.9,8.5,18,0.00,,,-99.99,767.0,HOBO +U30 +Weather +,2013-06-15 21:25:00,
2013-06-15 15:30:00,77.5,31.8,-100.00,South,188,6.3,13.4,18,0.00,,,-99.99,761.0,HOBO +U30 +Weather +,2013-06-15 21:30:00,
2013-06-15 15:35:00,76.6,31.7,-100.00,SSW,202,8.9,13.0,19,0.00,,,-99.99,751.0,HOBO +U30 +Weather +,2013-06-15 21:35:00,
2013-06-15 15:40:00,77.5,32.0,-100.00,SSW,211,4.0,8.9,19,0.00,,,-99.99,742.0,HOBO +U30 +Weather +,2013-06-15 21:40:00,
2013-06-15 15:45:00,76.3,31.9,-100.00,SSE,163,6.3,9.6,19,0.00,,,-99.99,733.0,HOBO +U30 +Weather +,2013-06-15 21:45:00,
2013-06-15 15:50:00,77.3,32.3,-100.00,SSE,153,4.5,8.9,19,0.00,,,-99.99,724.0,HOBO +U30 +Weather +,2013-06-15 21:50:00,
2013-06-15 16:03:00,77.6,32.6,-100.00,South,180,4.5,10.7,19,0.00,,,-99.99,716.0,HOBO +U30 +Weather +,2013-06-15 22:03:00,
2013-06-15 16:05:00,80.1,33.3,-100.00,SSW,197,1.1,6.7,18,0.00,,,-99.99,701.0,HOBO +U30 +Weather +,2013-06-15 22:05:00,
2013-06-15 16:10:00,78.9,33.4,-100.00,South,191,5.1,14.1,19,0.00,,,-99.99,688.0,HOBO +U30 +Weather +,2013-06-15 22:10:00,
2013-06-15 16:15:00,78.1,33.3,-100.00,SSW,192,4.5,9.6,19,0.00,,,-99.99,678.0,HOBO +U30 +Weather +,2013-06-15 22:15:00,
2013-06-15 16:20:00,78.2,33.4,-100.00,SSE,153,4.0,10.1,19,0.00,,,-99.99,668.0,HOBO +U30 +Weather +,2013-06-15 22:20:00,
2013-06-15 16:25:00,79.3,33.4,-100.00,South,177,5.1,9.6,18,0.00,,,-99.99,657.0,HOBO +U30 +Weather +,2013-06-15 22:25:00,
2013-06-15 16:30:00,78.7,33.0,-100.00,SE,146,3.4,8.9,19,0.00,,,-99.99,647.0,HOBO +U30 +Weather +,2013-06-15 22:30:00,
2013-06-15 16:35:00,77.0,33.6,-100.00,SE,129,6.3,10.1,20,0.00,,,-99.99,636.0,HOBO +U30 +Weather +,2013-06-15 22:35:00,
2013-06-15 16:40:00,77.3,33.2,-100.00,SE,132,6.3,11.2,20,0.00,,,-99.99,626.0,HOBO +U30 +Weather +,2013-06-15 22:40:00,
2013-06-15 16:45:00,78.9,34.0,-100.00,South,180,3.4,8.9,19,0.00,,,-99.99,617.0,HOBO +U30 +Weather +,2013-06-15 22:45:00,
2013-06-15 16:50:00,78.5,33.6,-100.00,SSE,163,4.0,7.4,19,0.00,,,-99.99,607.0,HOBO +U30 +Weather +,2013-06-15 22:50:00,
2013-06-15 17:02:00,79.0,33.2,-100.00,ESE,118,1.8,5.6,18,0.00,,,-99.99,596.0,HOBO +U30 +Weather +,2013-06-15 23:02:00,
2013-06-15 17:05:00,78.3,34.1,-100.00,South,183,6.3,10.1,20,0.00,,,-99.99,572.0,HOBO +U30 +Weather +,2013-06-15 23:05:00,
2013-06-15 17:10:00,78.5,32.3,-100.00,SSW,192,6.3,10.7,18,0.00,,,-99.99,561.0,HOBO +U30 +Weather +,2013-06-15 23:10:00,
2013-06-15 17:15:00,80.9,33.2,-100.00,WSW,239,4.0,8.5,17,0.00,,,-99.99,549.0,HOBO +U30 +Weather +,2013-06-15 23:15:00,
2013-06-15 17:20:00,78.8,33.0,-100.00,WSW,257,7.4,12.3,18,0.00,,,-99.99,539.0,HOBO +U30 +Weather +,2013-06-15 23:20:00,
2013-06-15 17:25:00,79.1,33.1,-100.00,WSW,257,6.7,12.3,18,0.00,,,-99.99,526.0,HOBO +U30 +Weather +,2013-06-15 23:25:00,
2013-06-15 17:30:00,79.0,32.9,-100.00,WSW,240,5.6,10.7,18,0.00,,,-99.99,513.0,HOBO +U30 +Weather +,2013-06-15 23:30:00,
2013-06-15 17:35:00,78.1,34.2,-100.00,SSW,199,7.4,13.4,20,0.00,,,-99.99,499.0,HOBO +U30 +Weather +,2013-06-15 23:35:00,
2013-06-15 17:40:00,78.4,33.8,-100.00,SSW,209,7.4,14.1,19,0.00,,,-99.99,487.0,HOBO +U30 +Weather +,2013-06-15 23:40:00,
2013-06-15 17:45:00,79.4,34.7,-100.00,SSW,192,7.4,11.9,19,0.00,,,-99.99,474.0,HOBO +U30 +Weather +,2013-06-15 23:45:00,
2013-06-15 17:50:00,78.2,33.4,-100.00,SSW,195,8.9,13.4,19,0.00,,,-99.99,463.0,HOBO +U30 +Weather +,2013-06-15 23:50:00,
2013-06-15 18:01:00,78.2,33.3,-100.00,SW,227,7.4,11.9,19,0.00,,,-99.99,449.0,HOBO +U30 +Weather +,2013-06-16 00:01:00,
2013-06-15 18:05:00,78.1,33.3,-100.00,South,175,7.4,11.9,19,0.00,,,-99.99,426.0,HOBO +U30 +Weather +,2013-06-16 00:05:00,
2013-06-15 18:10:00,78.6,34.1,-100.00,South,178,6.3,9.6,19,0.00,,,-99.99,412.0,HOBO +U30 +Weather +,2013-06-16 00:10:00,
2013-06-15 18:15:00,78.5,33.2,-100.00,SSW,192,7.4,13.4,19,0.00,,,-99.99,399.0,HOBO +U30 +Weather +,2013-06-16 00:15:00,
2013-06-15 18:20:00,78.6,33.7,-100.00,South,187,6.7,11.2,19,0.00,,,-99.99,387.0,HOBO +U30 +Weather +,2013-06-16 00:20:00,
2013-06-15 18:25:00,78.3,33.6,-100.00,South,170,6.3,10.7,19,0.00,,,-99.99,373.0,HOBO +U30 +Weather +,2013-06-16 00:25:00,
2013-06-15 18:30:00,78.7,33.8,-100.00,SSE,163,6.7,10.1,19,0.00,,,-99.99,361.0,HOBO +U30 +Weather +,2013-06-16 00:30:00,
2013-06-15 18:35:00,78.6,34.1,-100.00,South,184,6.3,9.6,19,0.00,,,-99.99,347.0,HOBO +U30 +Weather +,2013-06-16 00:35:00,
2013-06-15 18:40:00,78.0,33.5,-100.00,South,187,7.4,11.9,19,0.00,,,-99.99,334.0,HOBO +U30 +Weather +,2013-06-16 00:40:00,
2013-06-15 18:45:00,78.5,33.3,-100.00,SSW,205,5.6,10.7,19,0.00,,,-99.99,322.0,HOBO +U30 +Weather +,2013-06-16 00:45:00,
2013-06-15 18:50:00,79.4,34.2,-100.00,SW,232,2.9,7.4,19,0.00,,,-99.99,308.0,HOBO +U30 +Weather +,2013-06-16 00:50:00,
2013-06-15 19:00:00,80.5,34.2,-100.00,SSW,205,1.8,5.1,18,0.00,,,-99.99,296.0,HOBO +U30 +Weather +,2013-06-16 01:00:00,
2013-06-15 19:05:00,79.7,34.4,-100.00,South,170,2.2,5.6,19,0.00,,,-99.99,269.0,HOBO +U30 +Weather +,2013-06-16 01:05:00,
2013-06-15 19:10:00,78.9,33.2,-100.00,SE,143,2.9,7.8,19,0.00,,,-99.99,257.0,HOBO +U30 +Weather +,2013-06-16 01:10:00,
2013-06-15 19:15:00,78.9,33.0,-100.00,SSE,157,4.5,6.7,18,0.00,,,-99.99,243.0,HOBO +U30 +Weather +,2013-06-16 01:15:00,
2013-06-15 19:20:00,78.9,32.9,-100.00,SSE,157,3.4,6.3,18,0.00,,,-99.99,231.0,HOBO +U30 +Weather +,2013-06-16 01:20:00,
2013-06-15 19:25:00,79.1,33.3,-100.00,SSE,157,2.2,5.1,19,0.00,,,-99.99,218.0,HOBO +U30 +Weather +,2013-06-16 01:25:00,
2013-06-15 19:30:00,78.9,32.9,-100.00,SE,125,1.8,4.5,18,0.00,,,-99.99,206.0,HOBO +U30 +Weather +,2013-06-16 01:30:00,
2013-06-15 19:35:00,79.3,33.7,-100.00,SE,124,1.1,3.4,19,0.00,,,-99.99,194.0,HOBO +U30 +Weather +,2013-06-16 01:35:00,
2013-06-15 19:40:00,79.4,33.7,-100.00,South,185,2.2,5.6,19,0.00,,,-99.99,181.0,HOBO +U30 +Weather +,2013-06-16 01:40:00,
2013-06-15 19:45:00,79.5,33.8,-100.00,South,188,1.8,5.6,19,0.00,,,-99.99,168.0,HOBO +U30 +Weather +,2013-06-16 01:45:00,
2013-06-15 19:59:00,78.8,33.2,-100.00,South,171,3.4,7.4,19,0.00,,,-99.99,157.0,HOBO +U30 +Weather +,2013-06-16 01:59:00,
2013-06-15 20:00:00,78.7,35.2,-100.00,South,174,2.2,4.0,20,0.00,,,-99.99,133.0,HOBO +U30 +Weather +,2013-06-16 02:00:00,
2013-06-15 20:05:00,77.9,34.6,-100.00,South,190,4.5,6.7,20,0.00,,,-99.99,122.0,HOBO +U30 +Weather +,2013-06-16 02:05:00,
2013-06-15 20:10:00,77.6,35.4,-100.00,South,185,4.5,7.4,21,0.00,,,-99.99,107.0,HOBO +U30 +Weather +,2013-06-16 02:10:00,
2013-06-15 20:15:00,77.4,35.6,-100.00,South,174,4.5,7.4,22,0.00,,,-99.99,92.0,HOBO +U30 +Weather +,2013-06-16 02:15:00,
2013-06-15 20:20:00,77.2,35.7,-100.00,South,178,4.5,7.8,22,0.00,,,-99.99,78.0,HOBO +U30 +Weather +,2013-06-16 02:20:00,
2013-06-15 20:25:00,76.7,35.1,-100.00,SSE,167,4.0,6.7,22,0.00,,,-99.99,66.0,HOBO +U30 +Weather +,2013-06-16 02:25:00,
2013-06-15 20:30:00,76.6,35.7,-100.00,SSE,159,3.4,5.6,22,0.00,,,-99.99,53.0,HOBO +U30 +Weather +,2013-06-16 02:30:00,
2013-06-15 20:35:00,75.7,36.1,-100.00,SE,140,4.5,6.7,23,0.00,,,-99.99,43.0,HOBO +U30 +Weather +,2013-06-16 02:35:00,
2013-06-15 20:40:00,75.3,36.2,-100.00,SSE,153,4.5,6.3,24,0.00,,,-99.99,33.0,HOBO +U30 +Weather +,2013-06-16 02:40:00,
2013-06-15 20:45:00,75.1,37.1,-100.00,SSE,156,4.0,6.3,25,0.00,,,-99.99,24.0,HOBO +U30 +Weather +,2013-06-16 02:45:00,
2013-06-15 20:58:00,74.2,36.8,-100.00,SSE,156,4.0,7.4,25,0.00,,,-99.99,9.0,HOBO +U30 +Weather +,2013-06-16 02:58:00,
2013-06-15 21:00:00,73.3,37.2,-100.00,South,191,2.2,5.1,26,0.00,,,-99.99,6.0,HOBO +U30 +Weather +,2013-06-16 03:00:00,
2013-06-15 21:05:00,73.2,37.9,-100.00,SSW,195,0.7,3.4,27,0.00,,,-99.99,4.0,HOBO +U30 +Weather +,2013-06-16 03:05:00,
2013-06-15 21:10:00,72.9,39.3,-100.00,SE,146,2.2,5.6,29,0.00,,,-99.99,2.0,HOBO +U30 +Weather +,2013-06-16 03:10:00,
2013-06-15 21:15:00,72.6,40.4,-100.00,SSE,167,2.2,6.7,31,0.00,,,-99.99,1.0,HOBO +U30 +Weather +,2013-06-16 03:15:00,
2013-06-15 21:20:00,73.1,38.6,-100.00,SE,146,0.7,4.0,28,0.00,,,-99.99,1.0,HOBO +U30 +Weather +,2013-06-16 03:20:00,
2013-06-15 21:25:00,72.8,39.5,-100.00,NE,37,2.9,4.5,29,0.00,,,-99.99,1.0,HOBO +U30 +Weather +,2013-06-16 03:25:00,
2013-06-15 21:30:00,72.9,38.6,-100.00,NNE,28,2.2,4.0,28,0.00,,,-99.99,1.0,HOBO +U30 +Weather +,2013-06-16 03:30:00,
2013-06-15 21:35:00,72.3,40.1,-100.00,NNE,22,1.8,4.0,31,0.00,,,-99.99,1.0,HOBO +U30 +Weather +,2013-06-16 03:35:00,
2013-06-15 21:40:00,71.8,40.5,-100.00,ENE,59,2.9,4.5,32,0.00,,,-99.99,1.0,HOBO +U30 +Weather +,2013-06-16 03:40:00,
2013-06-15 21:45:00,71.1,41.1,-100.00,East,88,1.8,5.1,33,0.00,,,-99.99,1.0,HOBO +U30 +Weather +,2013-06-16 03:45:00,
2013-06-15 21:57:00,70.8,41.4,-100.00,SSE,164,2.9,5.1,34,0.00,,,-99.99,1.0,HOBO +U30 +Weather +,2013-06-16 03:57:00,
2013-06-15 22:00:00,71.0,40.7,-100.00,SSE,154,1.8,4.5,33,0.00,,,-99.99,1.0,HOBO +U30 +Weather +,2013-06-16 04:00:00,
2013-06-15 22:05:00,70.5,41.8,-100.00,SE,125,1.8,4.0,35,0.00,,,-99.99,1.0,HOBO +U30 +Weather +,2013-06-16 04:05:00,
2013-06-15 22:10:00,69.6,42.3,-100.00,ESE,108,0.0,1.8,37,0.00,,,-99.99,1.0,HOBO +U30 +Weather +,2013-06-16 04:10:00,
2013-06-15 22:15:00,69.8,42.1,-100.00,SE,145,1.8,4.5,36,0.00,,,-99.99,1.0,HOBO +U30 +Weather +,2013-06-16 04:15:00,
2013-06-15 22:20:00,68.9,43.0,-100.00,South,170,1.8,4.0,39,0.00,,,-99.99,1.0,HOBO +U30 +Weather +,2013-06-16 04:20:00,
2013-06-15 22:25:00,68.5,42.7,-100.00,South,171,1.8,4.0,39,0.00,,,-99.99,1.0,HOBO +U30 +Weather +,2013-06-16 04:25:00,
2013-06-15 22:30:00,68.7,42.7,-100.00,South,178,2.2,4.5,38,0.00,,,-99.99,1.0,HOBO +U30 +Weather +,2013-06-16 04:30:00,
2013-06-15 22:35:00,68.3,43.1,-100.00,South,178,0.0,1.8,40,0.00,,,-99.99,1.0,HOBO +U30 +Weather +,2013-06-16 04:35:00,
2013-06-15 22:40:00,67.8,43.4,-100.00,SSE,160,1.1,3.4,41,0.00,,,-99.99,1.0,HOBO +U30 +Weather +,2013-06-16 04:40:00,
2013-06-15 22:45:00,67.0,43.7,-100.00,SSE,166,0.0,2.9,42,0.00,,,-99.99,1.0,HOBO +U30 +Weather +,2013-06-16 04:45:00,
2013-06-15 22:56:00,65.8,45.2,-100.00,ESE,102,3.4,11.2,47,0.00,,,-99.99,1.0,HOBO +U30 +Weather +,2013-06-16 04:56:00,
2013-06-15 23:00:00,65.6,43.1,-100.00,NE,38,2.2,6.7,44,0.00,,,-99.99,1.0,HOBO +U30 +Weather +,2013-06-16 05:00:00,
2013-06-15 23:05:00,65.7,43.1,-100.00,NE,37,3.4,5.1,43,0.00,,,-99.99,1.0,HOBO +U30 +Weather +,2013-06-16 05:05:00,
2013-06-15 23:10:00,65.6,42.6,-100.00,NNE,28,1.1,3.4,43,0.00,,,-99.99,1.0,HOBO +U30 +Weather +,2013-06-16 05:10:00,
2013-06-15 23:15:00,65.4,43.4,-100.00,NNE,28,1.8,4.5,44,0.00,,,-99.99,1.0,HOBO +U30 +Weather +,2013-06-16 05:15:00,
2013-06-15 23:20:00,65.2,43.0,-100.00,NE,38,1.1,4.5,44,0.00,,,-99.99,1.0,HOBO +U30 +Weather +,2013-06-16 05:20:00,
2013-06-15 23:25:00,64.8,43.7,-100.00,NE,38,0.7,3.4,46,0.00,,,-99.99,1.0,HOBO +U30 +Weather +,2013-06-16 05:25:00,
2013-06-15 23:30:00,64.7,44.0,-100.00,NE,37,2.9,4.5,47,0.00,,,-99.99,1.0,HOBO +U30 +Weather +,2013-06-16 05:30:00,
2013-06-15 23:35:00,65.1,44.0,-100.00,NNE,32,0.0,1.8,46,0.00,,,-99.99,1.0,HOBO +U30 +Weather +,2013-06-16 05:35:00,
2013-06-15 23:40:00,64.6,43.7,-100.00,NNE,32,0.0,1.1,46,0.00,,,-99.99,1.0,HOBO +U30 +Weather +,2013-06-16 05:40:00,
2013-06-15 23:45:00,64.5,42.3,-100.00,NNE,20,0.7,2.9,44,0.00,,,-99.99,1.0,HOBO +U30 +Weather +,2013-06-16 05:45:00,
2013-06-15 23:50:00,64.0,44.1,-100.00,NNE,13,0.7,2.2,48,0.00,,,-99.99,1.0,HOBO +U30 +Weather +,2013-06-16 05:50:00,
2013-06-15 23:55:00,63.4,42.9,-100.00,NNE,27,0.7,1.8,47,0.00,,,-99.99,1.0,HOBO +U30 +Weather +,2013-06-16 05:55:00,